Regional Weather Roundup
Issued by NWS

Home | Current Version | Previous Version | Graphics & Text | Print | Product List | Glossary On
Versions: 1 2 3 4 5 6 7 8 9 10 11 12 13 14 15 16 17 18 19 20 21 22 23 24 25 26 27 28 29 30 31 32 33 34 35 36 37 38 39 40 41 42 43 44 45 46 47 48 49 50
000
ASUS43 KLSX 251407
RWRMO

WEATHER SUMMARY FOR MISSOURI
NATIONAL WEATHER SERVICE SPRINGFIELD MO
900 AM CDT THU AUG 25 2016

NOTE: "FAIR" INDICATES FEW OR NO CLOUDS BELOW 12,000 FEET WITH NO
       SIGNIFICANT WEATHER AND/OR OBSTRUCTIONS TO VISIBILITY.
       CURRENT SKY AND/OR WEATHER CONDITIONS ARE NOT AVAILABLE FOR
       CHILLICOTHE AND FARMINGTON.

MOZ001>031-035>038-043-044-053-054-251500-
...NORTHERN AND WESTERN MISSOURI...

CITY           SKY/WX    TMP DP  RH WIND       PRES   REMARKS
KANSAS CTY INT CLOUDY    71  68  90 E3        30.06F
KANSAS C DTWN  CLOUDY    74  71  91 E5        30.06F
LEE`S SUMMIT   CLOUDY    71  70  96 NW3       30.09R
ST JOSEPH      LGT RAIN  69  68  96 N5        30.06F FOG
KIRKSVILLE     CLOUDY    72  69  90 CALM      30.08R

$$
MOZ066>068-077>081-088>096-101>105-251500-
...SOUTHWEST MISSOURI...

CITY           SKY/WX    TMP DP  RH WIND       PRES   REMARKS
SPRINGFIELD    SUNNY     78  70  76 S9        30.11S
JOPLIN         MOSUNNY   79  70  74 S14       30.09R
BRANSON        SUNNY     81  72  74 SW6       30.14R

$$
MOZ032>034-039>042-045>050-055>058-069>072-251500-
...CENTRAL MISSOURI...

CITY           SKY/WX    TMP DP  RH WIND       PRES   REMARKS
COLUMBIA       SUNNY     77  71  82 SW13G20   30.07R
JEFFERSON CITY SUNNY     77  70  79 SW8       30.06R
ROLLA          MOSUNNY   77  70  79 SW10      30.08R
SEDALIA        MOSUNNY   75  70  84 SW9       30.08R
WHITEMAN AFB   PTSUNNY   72  72 100 SW8       30.06R
OSAGE BEACH    SUNNY     78  70  76 SW7       30.09R

$$
MOZ051-052-059>065-251500-
...EAST CENTRAL MISSOURI...

CITY           SKY/WX    TMP DP  RH WIND       PRES   REMARKS
ST LOUIS INTL  MOSUNNY   83  72  69 SW6       30.05S
SPIRIT OF STL  SUNNY     81  73  76 SW6       30.03F
ST CHARLES     SUNNY     79  73  82 NE3       30.04R

$$
MOZ072>076-082>087-097>100-106>115-251500-
...SOUTH CENTRAL AND SOUTHEAST MISSOURI...

CITY           SKY/WX    TMP DP  RH WIND       PRES   REMARKS
CAPE GIRARDEAU SUNNY     81  75  82 SW6       30.10S
FARMINGTON     SUNNY     78  73  84 S5        30.11S
POPLAR BLUFF   MOSUNNY   77  75  93 SW3       30.10S
WEST PLAINS    SUNNY     78  70  76 SW8       30.15R

$$



USA.gov is the U.S. government's official web portal to all federal, state and local government web resources and services.